Regional Weather Roundup
Issued by NWS Cleveland, OH

Home | Current Version | Previous Version | Graphics & Text | Print | Product List | Glossary On
Versions: 1 2 3 4 5 6 7 8 9 10 11 12 13 14 15 16 17 18 19 20 21 22 23 24 25 26 27 28 29 30 31 32 33 34 35 36 37 38 39 40 41 42 43 44 45 46 47 48 49 50
000
ASUS41 KCLE 140700
RWRCLE
OHIO REGIONAL WEATHER ROUNDUP
NATIONAL WEATHER SERVICE WILMINGTON, OH
200 AM EST SUN FEB 14 2016

NOTE: "FAIR" INDICATES FEW OR NO CLOUDS BELOW 12,000 FEET WITH NO
SIGNIFICANT WEATHER AND/OR OBSTRUCTIONS TO VISIBILITY.

OHZ001>008-015>018-024>027-034-035-043-044-140800-
   NORTHWEST OHIO

CITY           SKY/WX    TMP DP  RH WIND       PRES   REMARKS
DEFIANCE       CLOUDY    14   3  61 CALM      30.49S
FINDLAY        MOCLDY     9   2  73 W5        30.46S WCI   1
TOLEDO EXPRESS CLOUDY    11   3  70 N3        30.48R
TOLEDO EXEC    FAIR      11   0  61 NW3       30.49R
LIMA           FAIR       7   1  76 CALM      30.45F
$$

OHZ009>014-019>023-028>033-038-089-140800-
   NORTHEAST OHIO

CITY           SKY/WX    TMP DP  RH WIND       PRES   REMARKS
CLE-HOPKINS    FLURRIES   4   2  91 CALM      30.47F
CLE-LAKEFRONT  CLOUDY    14   1  56 NW14      30.45S WCI  -1
CUY CO. ARPT   NOT AVBL
LORAIN-ELYRIA  FOG        0  -4  83 SW3       30.46R VSB 1/4
ASHTABULA      CLOUDY    10  -3  55 W6        30.41F WCI   0
AKRON-CANTON   FLURRIES   2  -2  83 W5        30.41S WCI  -8
WOOSTER        NOT AVBL
MANSFIELD      CLOUDY     7   4  87 W6        30.41R WCI  -3
YOUNGSTOWN     LGT SNOW   2  -2  83 SW3       30.40S FOG
$$

OHZ042-051>053-060>062-070>072-077>081-140800-
  SOUTHWEST OHIO

CITY           SKY/WX    TMP DP  RH WIND       PRES   REMARKS
CINC-COVINGTON MOCLDY    14   6  70 NE7       30.45F WCI   4
CINC-LUNKEN    FAIR      11   7  84 NE3       30.52S
HAMILTON       FAIR      13   2  61 NE7       30.51R WCI   3
DAYTON         NOT AVBL
WRIGHT-PAT AFB MOCLDY     7   0  74 S1        30.48R
DAYTON GENERAL FAIR       7  -1  70 CALM      30.47R
WILMINGTON     FAIR       4  -1  80 CALM      30.46R
$$

OHZ036-037-039>041-045>050-054>059-063>069-073>076-082>088-140800-
  CENTRAL AND SOUTHEAST OHIO

CITY           SKY/WX    TMP DP  RH WIND       PRES   REMARKS
COLUMBUS       MOCLDY     7  -2  66 CALM      30.47F
OSU AIRPORT    FAIR       5  -1  76 W6        30.46F WCI  -6
BOLTON FIELD   NOT AVBL
RICKENBACK AFB NOT AVBL
NEWARK         FAIR       2  -3  80 S3        30.46S
MARION         FAIR       6  -1  73 W3        30.45S
LANCASTER      FAIR      -1  -7  75 CALM      30.47F
ZANESVILLE     FAIR       6   0  76 SW3       30.46S
NEW PHILLY     FAIR       4  32 100 CALM      30.46R
$$



USA.gov is the U.S. government's official web portal to all federal, state and local government web resources and services.